History for Austin, TX on Sunday, January 1, 2012

Jump to data by:

Latest visited Airport Codes: KATT

Data type:
 

« Previous Day | Next Day »

 
Daily Summary
Actual Average Record
Temperature
Mean Temperature 55 °F 51 °F  
Max Temperature 63 °F 61 °F 85 °F (2006)
Min Temperature 47 °F 41 °F 17 °F (1928)
Degree Days
Heating Degree Days 10 14  
Month to date heating degree days 10 14  
Since 1 July heating degree days 595 626  
Cooling Degree Days 0 0  
Month to date cooling degree days 0 0  
Year to date cooling degree days 0 0  
Growing Degree Days 4 (Base 50)    
Moisture
Dew Point 29 °F    
Average Humidity 45    
Maximum Humidity 66    
Minimum Humidity 23    
Precipitation
Precipitation 0.00 in 0.08 in 2.10 in (1944)
Month to date precipitation 0.00 0.08  
Year to date precipitation 0.00 0.08  
Snow
Snow 0.00 in - - ()
Month to date snowfall 0.0  
Since 1 July snowfall 0.0  
Snow Depth 0.00 in    
Sea Level Pressure
Sea Level Pressure 30.46 in    
Wind
Wind Speed 8 mph (North)    
Max Wind Speed 18 mph    
Max Gust Speed 25 mph    
Visibility 10 miles    
Events     
Key: T is trace of precipitation, MM is missing value
Source: NWS Daily Summary
Time (CST) Temp. Dew Point Humidity Sea Level Pressure Visibility Wind Direction Wind Speed Gust Speed Precip. Events Conditions
12:51 AM 59.0 °F 43.0 °F 55% 30.18 in 9.0 miles NNW 5.8 mph - N/A   Clear
1:51 AM 62.1 °F 30.9 °F 31% 30.22 in 10.0 miles North 11.5 mph 20.7 mph N/A   Clear
2:51 AM 57.9 °F 28.9 °F 33% 30.27 in 10.0 miles NNW 9.2 mph 17.3 mph N/A   Clear
3:51 AM 55.9 °F 26.1 °F 32% 30.31 in 10.0 miles North 11.5 mph 19.6 mph N/A   Clear
4:51 AM 53.1 °F 28.0 °F 38% 30.34 in 10.0 miles North 10.4 mph 19.6 mph N/A   Clear
5:51 AM 50.0 °F 30.0 °F 46% 30.38 in 10.0 miles North 9.2 mph 19.6 mph N/A   Clear
6:51 AM 48.9 °F 30.9 °F 50% 30.44 in 10.0 miles Variable 5.8 mph - N/A   Clear
7:51 AM 46.9 °F 30.9 °F 54% 30.48 in 10.0 miles NNW 6.9 mph - N/A   Clear
8:51 AM 50.0 °F 32.0 °F 50% 30.51 in 10.0 miles Variable 5.8 mph - N/A   Clear
9:51 AM 52.0 °F 30.9 °F 45% 30.54 in 10.0 miles NNW 10.4 mph 21.9 mph N/A   Clear
10:51 AM 57.0 °F 30.0 °F 36% 30.54 in 10.0 miles North 12.7 mph 19.6 mph N/A   Clear
11:51 AM 57.9 °F 28.9 °F 33% 30.52 in 10.0 miles North 9.2 mph 19.6 mph N/A   Clear
12:51 PM 61.0 °F 28.0 °F 29% 30.50 in 10.0 miles North 9.2 mph - N/A   Clear
1:51 PM 61.0 °F 26.1 °F 26% 30.48 in 10.0 miles North 10.4 mph 21.9 mph N/A   Clear
2:51 PM 62.1 °F 27.0 °F 26% 30.48 in 10.0 miles NNW 11.5 mph 19.6 mph N/A   Clear
3:51 PM 62.1 °F 25.0 °F 24% 30.48 in 10.0 miles North 10.4 mph 21.9 mph N/A   Clear
4:51 PM 60.1 °F 24.1 °F 25% 30.50 in 10.0 miles North 11.5 mph 19.6 mph N/A   Clear
5:51 PM 57.0 °F 24.1 °F 28% 30.52 in 10.0 miles North 5.8 mph - N/A   Clear
6:51 PM 54.0 °F 27.0 °F 35% 30.55 in 10.0 miles North 4.6 mph - N/A   Clear
7:51 PM 52.0 °F 27.0 °F 38% 30.57 in 10.0 miles NNW 4.6 mph - N/A   Clear
8:51 PM 50.0 °F 27.0 °F 41% 30.58 in 10.0 miles North 4.6 mph - N/A   Clear
9:51 PM 48.9 °F 26.1 °F 41% 30.61 in 10.0 miles North 4.6 mph - N/A   Clear
10:51 PM 48.0 °F 26.1 °F 42% 30.61 in 10.0 miles NNW 6.9 mph - N/A   Clear

Powered by the Weather Underground, Inc.